GW7110 Weather Reports


Display with metric or nautical units.
time (UTC)temp
F
wind
direction
speed
MPH
gust
MPH
rain 1hr
in
rain 24hr
in
rain mn
in
humidity
%
barometer
mb
20260906125121 73 356 1.0 2.0 0.00 0.61 0.02 92 30.0
20260906124621 73 295 1.0 2.0 0.00 0.61 0.02 93 30.0
20260906124123 73 308 0.0 1.0 0.00 0.61 0.02 94 30.0
20260906123622 73 360 0.0 0.0 0.00 0.61 0.02 96 30.0
20260906123122 73 360 0.0 0.0 0.00 0.61 0.02 96 30.0
20260906122622 72 360 0.0 0.0 0.00 0.61 0.02 96 30.0
20260906122122 72 360 0.0 0.0 0.00 0.61 0.02 96 30.0
20260906121622 72 295 0.0 1.0 0.00 0.61 0.02 96 30.0
20260906121122 72 360 0.0 0.0 0.00 0.61 0.02 97 30.0
20260906120622 72 3 0.0 2.0 0.00 0.61 0.02 97 30.0
20260906120122 72 360 0.0 0.0 0.00 0.61 0.02 97 30.0
20260906115622 72 360 0.0 0.0 0.00 0.61 0.02 97 30.0
20260906115121 72 267 0.0 1.0 0.00 0.61 0.02 97 30.0
20260906114621 72 360 0.0 0.0 0.00 0.61 0.02 97 30.0
20260906114122 72 360 0.0 0.0 0.00 0.61 0.02 97 30.0
20260906113622 72 360 0.0 0.0 0.00 0.61 0.02 97 30.0
20260906113121 72 360 0.0 0.0 0.00 0.61 0.02 96 30.0
20260906112622 72 360 0.0 0.0 0.00 0.61 0.02 96 30.0
20260906111632 72 360 0.0 0.0 0.00 0.61 0.02 95 30.0
20260906111121 72 360 0.0 0.0 0.00 0.61 0.02 95 30.0
20260906110627 72 306 1.0 1.0 0.00 0.61 0.02 95 30.0
20260906110122 72 337 1.0 2.0 0.00 0.61 0.02 96 30.0
20260906105621 72 344 0.0 1.0 0.00 0.61 0.02 95 30.0
20260906105121 72 293 0.0 2.0 0.00 0.61 0.02 95 30.0
20260906104622 72 360 0.0 0.0 0.00 0.61 0.02 96 29.9
20260906104122 72 360 0.0 0.0 0.00 0.61 0.02 95 29.9
20260906103622 72 301 0.0 1.0 0.00 0.61 0.02 96 29.9
20260906103121 73 360 0.0 0.0 0.00 0.61 0.02 96 29.9
20260906102622 73 310 0.0 0.0 0.00 0.61 0.02 96 29.9
20260906102121 73 360 0.0 0.0 0.01 0.61 0.02 96 29.9
20260906101621 73 334 0.0 1.0 0.02 0.61 0.02 95 29.9
20260906101121 73 360 0.0 0.0 0.02 0.61 0.02 95 29.9
20260906100621 73 360 0.0 0.0 0.02 0.61 0.02 95 29.9
20260906100122 73 360 0.0 0.0 0.02 0.61 0.02 94 29.9
20260906095623 73 360 0.0 0.0 0.02 0.61 0.02 93 29.9
20260906095121 73 290 0.0 0.0 0.02 0.61 0.02 93 29.9
20260906094622 73 173 0.0 1.0 0.02 0.61 0.02 94 29.9
20260906094122 74 331 0.0 0.0 0.02 0.61 0.02 94 29.9
20260906093622 74 360 0.0 0.0 0.02 0.61 0.02 94 29.9
20260906093122 74 352 1.0 3.0 0.02 0.60 0.02 97 29.9
20260906092622 74 360 0.0 0.0 0.00 0.60 0.02 97 29.9
20260906092121 74 360 0.0 0.0 0.00 0.60 0.02 97 29.9
20260906091621 73 360 0.0 0.0 0.00 0.59 0.00 97 29.9
20260906091122 73 122 0.0 1.0 0.00 0.59 0.00 97 29.9
20260906090623 73 360 0.0 0.0 0.00 0.59 0.00 96 29.9
20260906090123 73 360 0.0 0.0 0.00 0.59 0.00 96 29.9
20260906085622 73 360 0.0 0.0 0.00 0.59 0.00 95 29.9
20260906085124 74 360 0.0 0.0 0.00 0.59 0.00 95 29.9
20260906084623 74 360 0.0 0.0 0.00 0.59 0.00 96 29.9
20260906084122 74 360 0.0 0.0 0.00 0.59 0.00 96 29.9
20260906083622 74 165 0.0 0.0 0.00 0.59 0.00 95 29.9
20260906083122 74 136 0.0 1.0 0.00 0.59 0.00 96 30.0
20260906082622 74 360 0.0 0.0 0.00 0.59 0.00 97 30.0
20260906082130 74 237 1.0 2.0 0.00 0.59 0.00 96 30.0
20260906081622 74 360 0.0 0.0 0.00 0.59 0.00 97 30.0
20260906081123 74 248 0.0 2.0 0.00 0.59 0.00 97 30.0
20260906080621 74 202 0.0 1.0 0.00 0.59 0.00 97 30.0
20260906080122 74 360 0.0 0.0 0.00 0.59 0.00 98 30.0
20260906075622 74 163 0.0 0.0 0.00 0.59 0.00 97 30.0
20260906075122 75 282 1.0 1.0 0.00 0.59 0.00 97 30.0
20260906074622 74 145 0.0 2.0 0.00 0.59 0.00 97 30.0
20260906074126 74 338 0.0 2.0 0.00 0.59 0.00 98 30.0
20260906073622 74 321 0.0 0.0 0.00 0.59 0.00 98 30.0
20260906073122 74 360 0.0 0.0 0.00 0.59 0.00 98 30.0
20260906072622 74 242 0.0 1.0 0.00 0.59 0.00 99 30.0
20260906072122 74 360 0.0 0.0 0.00 0.59 0.00 99 30.0
20260906071621 74 360 0.0 0.0 0.00 0.59 0.00 99 30.0
20260906071125 74 360 0.0 0.0 0.00 0.59 0.00 98 30.0
20260906070622 74 360 0.0 0.0 0.00 0.59 0.00 98 30.0
20260906070122 74 360 0.0 0.0 0.00 0.59 0.00 98 30.0
20260906065622 74 95 0.0 0.0 0.00 0.59 0.00 98 30.0
20260906065128 74 360 0.0 0.0 0.00 0.59 0.00 98 30.0
20260906064621 74 360 0.0 0.0 0.00 0.59 0.00 98 30.0
20260906064122 74 360 0.0 0.0 0.00 0.59 0.00 98 30.0
20260906063622 74 283 0.0 2.0 0.00 0.59 0.00 98 30.0
20260906063122 74 360 0.0 0.0 0.00 0.59 0.00 98 30.0
20260906062629 74 247 0.0 1.0 0.00 0.59 0.00 98 30.0
20260906062122 74 115 0.0 0.0 0.00 0.59 0.00 98 30.0
20260906061621 74 360 0.0 0.0 0.00 0.59 0.00 98 30.0
20260906061122 74 360 0.0 0.0 0.00 0.59 0.00 98 30.0
20260906060621 74 360 0.0 0.0 0.00 0.59 0.00 98 30.0
20260906060123 74 360 0.0 0.0 0.00 0.59 0.00 98 30.0
20260906055621 74 360 0.0 0.0 0.00 0.59 0.00 98 29.9
20260906055122 75 360 0.0 0.0 0.00 0.59 0.00 98 29.9
20260906054622 75 360 0.0 0.0 0.00 0.59 0.00 98 29.9
20260906054122 75 360 0.0 0.0 0.00 0.59 0.00 98 29.9
20260906053622 75 360 0.0 0.0 0.00 0.59 0.00 98 29.9
20260906053121 75 340 0.0 1.0 0.00 0.59 0.00 98 29.9
20260906052623 75 360 0.0 0.0 0.00 0.59 0.00 98 29.9
20260906052121 75 360 0.0 0.0 0.00 0.59 0.00 98 29.9
20260906051621 75 360 0.0 0.0 0.00 0.59 0.00 98 29.9
20260906051122 75 360 0.0 0.0 0.00 0.59 0.00 98 29.9
20260906050621 75 360 0.0 0.0 0.00 0.59 0.00 98 29.9
20260906050122 75 360 0.0 0.0 0.00 0.59 0.00 98 29.9
20260906045622 75 40 0.0 0.0 0.00 0.59 0.59 98 29.9
20260906045122 75 273 0.0 0.0 0.00 0.59 0.59 98 29.9
20260906044622 75 360 0.0 0.0 0.00 0.59 0.59 98 30.0
20260906044122 75 360 0.0 0.0 0.00 0.59 0.59 98 30.0
20260906043622 75 360 0.0 0.0 0.00 0.59 0.59 98 30.0
20260906043122 75 360 0.0 0.0 0.00 0.59 0.59 98 30.0
20260906042621 76 360 0.0 0.0 0.00 0.59 0.59 98 30.0
20260906042121 76 360 0.0 0.0 0.00 0.59 0.59 98 30.0
20260906041622 76 360 0.0 0.0 0.00 0.59 0.59 98 30.0
20260906041122 76 360 0.0 0.0 0.00 0.59 0.59 98 30.0
20260906040622 76 350 0.0 1.0 0.00 0.59 0.59 98 30.0
20260906040122 75 360 0.0 0.0 0.00 0.59 0.59 98 30.0
20260906035622 75 360 0.0 0.0 0.00 0.59 0.59 98 30.0
20260906035121 75 360 0.0 0.0 0.00 0.59 0.59 98 30.0
20260906034623 75 360 0.0 0.0 0.00 0.59 0.59 98 30.0
20260906034122 75 360 0.0 0.0 0.00 0.59 0.59 98 30.0
20260906033621 75 360 0.0 0.0 0.00 0.59 0.59 98 30.0
20260906033121 75 360 0.0 0.0 0.00 0.59 0.59 98 30.0
20260906032625 75 360 0.0 0.0 0.00 0.59 0.59 98 30.0
20260906032122 76 360 0.0 0.0 0.00 0.59 0.59 97 30.0
20260906031621 76 360 0.0 0.0 0.00 0.59 0.59 97 30.0
20260906031122 76 360 0.0 0.0 0.00 0.59 0.59 97 30.0
20260906030621 76 360 0.0 0.0 0.00 0.59 0.59 97 30.0
20260906030122 76 360 0.0 0.0 0.00 0.59 0.59 97 30.0
20260906025622 76 360 0.0 0.0 0.00 0.59 0.59 96 30.0
20260906025122 76 360 0.0 0.0 0.00 0.59 0.59 96 30.0
20260906024621 76 360 0.0 0.0 0.00 0.59 0.59 97 30.0
20260906024121 76 360 0.0 0.0 0.00 0.59 0.59 97 29.9
20260906023621 76 360 0.0 0.0 0.00 0.59 0.59 97 29.9
20260906023121 76 360 0.0 0.0 0.00 0.59 0.59 97 29.9
20260906022622 76 360 0.0 0.0 0.00 0.59 0.59 96 29.9
20260906022121 76 360 0.0 0.0 0.00 0.59 0.59 96 29.9
20260906021621 77 360 0.0 0.0 0.00 0.59 0.59 96 29.9
20260906021122 77 360 0.0 0.0 0.00 0.59 0.59 95 29.9
20260906020622 76 338 0.0 1.0 0.00 0.59 0.59 96 29.9
20260906020122 76 343 0.0 1.0 0.00 0.59 0.59 96 29.9
20260906015622 76 337 0.0 0.0 0.00 0.59 0.59 97 29.9
20260906015122 76 355 0.0 1.0 0.00 0.59 0.59 97 29.9
20260906014622 76 360 0.0 0.0 0.00 0.59 0.59 97 29.9
20260906014122 76 360 0.0 0.0 0.00 0.59 0.59 97 29.9
20260906013623 76 342 0.0 1.0 0.00 0.59 0.59 97 29.9
20260906013121 76 360 0.0 0.0 0.00 0.59 0.59 97 29.9
20260906012623 76 360 0.0 0.0 0.00 0.59 0.59 97 29.9
20260906012122 77 360 0.0 0.0 0.00 0.59 0.59 97 29.9
20260906011623 77 360 0.0 0.0 0.00 0.59 0.59 96 29.9
20260906011122 77 360 0.0 1.0 0.00 0.59 0.59 96 29.9
20260906010621 76 360 0.0 0.0 0.00 0.59 0.59 96 29.9
20260906010122 76 360 0.0 0.0 0.00 0.59 0.59 96 29.9
20260906005622 76 360 0.0 0.0 0.00 0.59 0.59 96 29.9
20260906005121 76 360 0.0 0.0 0.00 0.59 0.59 96 29.9
20260906004623 77 360 0.0 0.0 0.00 0.59 0.59 96 29.9
20260906004122 77 298 0.0 2.0 0.00 0.59 0.59 96 29.9
20260906003621 77 360 0.0 0.0 0.00 0.59 0.59 96 29.9
20260906003121 77 360 0.0 0.0 0.00 0.59 0.59 95 29.9
20260906002624 77 360 0.0 0.0 0.00 0.59 0.59 95 29.9
20260906002121 77 360 0.0 0.0 0.00 0.59 0.59 94 29.9
20260906001621 77 360 0.0 0.0 0.00 0.59 0.59 95 29.9
20260906001122 77 360 0.0 0.0 0.00 0.59 0.59 95 29.9
20260906000622 77 360 0.0 0.0 0.00 0.59 0.59 94 29.9
20260906000121 78 360 0.0 0.0 0.00 0.59 0.59 94 29.9
20260905235621 78 115 0.0 0.0 0.00 0.59 0.59 93 29.9
20260905235121 78 322 0.0 2.0 0.00 0.59 0.59 91 29.9
20260905234623 79 360 0.0 0.0 0.00 0.59 0.59 92 29.9
20260905234121 79 360 0.0 0.0 0.00 0.59 0.59 91 29.9
20260905233621 80 360 0.0 0.0 0.00 0.59 0.59 91 29.9
20260905233121 81 284 1.0 2.0 0.00 0.59 0.59 88 29.9
20260905232622 82 360 0.0 0.0 0.00 0.59 0.59 84 29.9
20260905232123 83 360 0.0 0.0 0.00 0.59 0.59 83 29.9
20260905231622 83 360 0.0 0.0 0.00 0.59 0.59 83 29.9
20260905231121 84 360 0.0 0.0 0.00 0.59 0.59 81 29.9
20260905230622 84 360 0.0 0.0 0.00 0.59 0.59 81 29.9
20260905230121 83 360 0.0 0.0 0.00 0.59 0.59 80 29.9
20260905225625 83 360 0.0 0.0 0.00 0.59 0.59 83 29.9
20260905225121 82 220 0.0 1.0 0.00 0.59 0.59 83 29.9
20260905224621 82 360 0.0 0.0 0.00 0.59 0.59 83 29.9
20260905224122 81 360 0.0 0.0 0.03 0.59 0.59 83 29.9
20260905223622 79 360 0.0 0.0 0.03 0.59 0.59 89 29.9
20260905223123 77 360 0.0 0.0 0.13 0.59 0.59 93 29.9
20260905222621 75 283 1.0 3.0 0.28 0.59 0.59 93 29.9
20260905222122 74 360 0.0 0.0 0.28 0.53 0.53 95 29.9
20260905221622 74 360 0.0 0.0 0.28 0.53 0.53 95 29.9
20260905221122 74 360 0.0 0.0 0.28 0.53 0.53 96 29.9
20260905220622 74 360 0.0 0.0 0.43 0.53 0.53 95 29.9
20260905220122 74 341 2.0 3.0 0.46 0.53 0.53 94 29.9
20260905215623 74 360 0.0 0.0 0.51 0.53 0.53 94 29.9
20260905215122 73 360 0.0 0.0 0.53 0.53 0.53 93 29.9
20260905214622 73 360 2.0 3.0 0.53 0.53 0.53 93 29.9
20260905214122 74 120 1.0 2.0 0.52 0.52 0.52 92 29.9
20260905213621 74 154 0.0 0.0 0.50 0.51 0.51 90 29.9
20260905213122 75 308 1.0 3.0 0.44 0.46 0.46 89 29.9
20260905212621 76 277 3.0 4.0 0.43 0.43 0.43 86 29.9
20260905212122 76 329 3.0 5.0 0.39 0.40 0.40 83 30.0
20260905211622 77 281 3.0 5.0 0.33 0.34 0.34 85 30.0
20260905211121 78 124 0.0 1.0 0.24 0.26 0.26 86 30.0
20260905210623 82 113 2.0 4.0 0.16 0.18 0.18 82 30.0
20260905205632 97 136 2.0 5.0 0.00 0.00 0.00 51 29.9
20260905205121 100 192 1.0 2.0 0.00 0.00 0.00 45 29.9
20260905204622 100 360 0.0 0.0 0.00 0.00 0.00 47 29.9
20260905204121 102 161 1.0 2.0 0.00 0.00 0.00 45 29.9
20260905203622 102 159 2.0 3.0 0.00 0.00 0.00 43 29.9
20260905203122 101 243 0.0 0.0 0.00 0.00 0.00 46 29.9
20260905202622 100 165 1.0 2.0 0.00 0.00 0.00 48 29.9
20260905202122 99 150 2.0 3.0 0.00 0.00 0.00 50 29.9
20260905201626 100 203 2.0 2.0 0.00 0.00 0.00 46 29.9
20260905201122 100 175 2.0 3.0 0.00 0.00 0.00 46 29.9
20260905200621 100 360 0.0 0.0 0.00 0.00 0.00 46 29.9
20260905200123 100 238 1.0 2.0 0.00 0.00 0.00 47 29.9
20260905195623 99 290 2.0 4.0 0.00 0.00 0.00 47 29.9
20260905195122 99 210 3.0 4.0 0.00 0.00 0.00 47 29.9
20260905194622 99 223 1.0 2.0 0.00 0.00 0.00 49 29.9
20260905194121 99 200 3.0 4.0 0.00 0.00 0.00 49 29.9
20260905193623 100 228 1.0 2.0 0.00 0.00 0.00 48 29.9
20260905193122 100 205 2.0 2.0 0.00 0.00 0.00 48 29.9
20260905192622 101 245 2.0 4.0 0.00 0.00 0.00 46 29.9
20260905192121 100 224 1.0 2.0 0.00 0.00 0.00 49 29.9
20260905191621 99 219 2.0 4.0 0.00 0.00 0.00 48 29.9
20260905191121 98 145 2.0 4.0 0.00 0.00 0.00 52 29.9
20260905190623 98 148 1.0 2.0 0.00 0.00 0.00 50 29.9
20260905190124 99 188 2.0 4.0 0.00 0.00 0.00 50 29.9
20260905185622 98 178 1.0 4.0 0.00 0.00 0.00 50 29.9
20260905185122 98 210 1.0 3.0 0.00 0.00 0.00 52 29.9
20260905184622 98 166 1.0 2.0 0.00 0.00 0.00 50 29.9
20260905184123 98 222 2.0 4.0 0.00 0.00 0.00 52 29.9
20260905183622 98 232 2.0 4.0 0.00 0.00 0.00 51 29.9
20260905183121 98 241 2.0 3.0 0.00 0.00 0.00 52 29.9
20260905182623 98 212 0.0 2.0 0.00 0.00 0.00 52 30.0
20260905182122 97 244 2.0 3.0 0.00 0.00 0.00 53 30.0
20260905181622 97 226 2.0 4.0 0.00 0.00 0.00 54 30.0
20260905181121 96 165 0.0 2.0 0.00 0.00 0.00 56 30.0
20260905180622 96 172 1.0 3.0 0.00 0.00 0.00 56 30.0
20260905180122 96 138 0.0 1.0 0.00 0.00 0.00 55 30.0
20260905175621 95 123 0.0 0.0 0.00 0.00 0.00 58 30.0
20260905175122 95 150 0.0 2.0 0.00 0.00 0.00 55 30.0
20260905174621 95 152 0.0 2.0 0.00 0.00 0.00 59 30.0
20260905174122 94 187 2.0 3.0 0.00 0.00 0.00 59 30.0
20260905173622 94 166 2.0 2.0 0.00 0.00 0.00 60 30.0
20260905173121 93 149 1.0 3.0 0.00 0.00 0.00 60 30.0
20260905172624 93 171 1.0 2.0 0.00 0.00 0.00 62 30.0
20260905172122 92 155 2.0 3.0 0.00 0.00 0.00 63 30.0
20260905171624 92 162 1.0 3.0 0.00 0.00 0.00 61 30.0
20260905171128 92 146 1.0 3.0 0.00 0.00 0.00 61 30.0
20260905170621 91 184 0.0 2.0 0.00 0.00 0.00 63 30.0
20260905170122 91 123 0.0 2.0 0.00 0.00 0.00 64 30.0
20260905165622 91 147 0.0 0.0 0.00 0.00 0.00 66 30.0
20260905165122 91 156 1.0 3.0 0.00 0.00 0.00 66 30.0
20260905164622 90 142 1.0 2.0 0.00 0.00 0.00 69 30.0
20260905164122 90 146 0.0 1.0 0.00 0.00 0.00 68 30.0
20260905163622 90 213 3.0 5.0 0.00 0.00 0.00 66 30.0
20260905163123 90 204 1.0 2.0 0.00 0.00 0.00 71 30.0
20260905162621 89 153 0.0 2.0 0.00 0.00 0.00 70 30.0
20260905162121 89 203 2.0 3.0 0.00 0.00 0.00 70 30.0
20260905161621 88 248 2.0 3.0 0.00 0.00 0.00 72 30.0
20260905161121 88 203 2.0 2.0 0.00 0.00 0.00 70 30.0
20260905160622 88 198 2.0 3.0 0.00 0.00 0.00 71 30.0
20260905160123 87 215 0.0 2.0 0.00 0.00 0.00 72 30.0
20260905155622 87 146 0.0 0.0 0.00 0.00 0.00 74 30.0
20260905155121 87 209 1.0 3.0 0.00 0.00 0.00 73 30.0
20260905154621 86 187 1.0 2.0 0.00 0.00 0.00 76 30.0
20260905154121 86 157 0.0 2.0 0.00 0.00 0.00 76 30.0
20260905153622 85 142 1.0 2.0 0.00 0.00 0.00 76 30.0
20260905153122 85 206 2.0 4.0 0.00 0.00 0.00 76 30.0
20260905152622 84 178 1.0 2.0 0.00 0.00 0.00 78 30.0
20260905152123 84 165 1.0 3.0 0.00 0.00 0.00 76 30.0
20260905151621 84 128 0.0 1.0 0.00 0.00 0.00 78 30.0
20260905151122 84 190 2.0 3.0 0.00 0.00 0.00 78 30.0
20260905150622 84 178 1.0 2.0 0.00 0.00 0.00 78 30.0
20260905150121 84 184 2.0 3.0 0.00 0.00 0.00 79 30.0
20260905145622 84 85 0.0 1.0 0.00 0.00 0.00 81 30.0
20260905145122 83 129 1.0 2.0 0.00 0.00 0.00 82 30.0
20260905144622 83 200 1.0 3.0 0.00 0.00 0.00 81 30.0
20260905144122 82 201 1.0 3.0 0.00 0.00 0.00 79 30.0
20260905143630 82 260 1.0 1.0 0.00 0.00 0.00 80 30.0
20260905143123 82 315 1.0 2.0 0.00 0.00 0.00 79 30.0
20260905142621 82 360 0.0 0.0 0.00 0.00 0.00 82 30.0
20260905142122 81 204 1.0 2.0 0.00 0.00 0.00 84 30.0
20260905141626 81 360 0.0 0.0 0.00 0.00 0.00 84 30.0
20260905141123 80 317 0.0 0.0 0.00 0.00 0.00 84 30.0
20260905140622 80 320 2.0 3.0 0.00 0.00 0.00 84 30.0
20260905135845 80 202 0.0 1.0 0.00 0.00 0.00 85 30.0
20260905135121 79 166 0.0 2.0 0.00 0.00 0.00 87 30.0
20260905134622 79 273 1.0 2.0 0.00 0.00 0.00 86 30.0
20260905134123 79 244 1.0 2.0 0.00 0.00 0.00 87 30.0
20260905133622 79 360 0.0 0.0 0.00 0.00 0.00 88 30.0
20260905133122 78 221 0.0 1.0 0.00 0.00 0.00 88 30.0
20260905132621 78 360 0.0 0.0 0.00 0.00 0.00 90 30.0
20260905132122 78 323 0.0 1.0 0.00 0.00 0.00 91 30.0
20260905131623 77 278 0.0 2.0 0.00 0.00 0.00 91 30.0
20260905131122 77 360 0.0 0.0 0.00 0.00 0.00 93 30.0
20260905130621 77 277 0.0 1.0 0.00 0.00 0.00 94 30.0
20260905130121 77 360 0.0 0.0 0.00 0.00 0.00 94 30.0
20260905125621 76 360 0.0 0.0 0.00 0.00 0.00 94 30.0